TimeMDT,TemperatureF,Dew PointF,Humidity,Sea Level PressureIn,VisibilityMPH,Wind Direction,Wind SpeedMPH,Gust SpeedMPH,PrecipitationIn,Events,Conditions,WindDirDegrees,DateUTC
12:52 AM,64.9,54.0,68,29.94,10.0,SW,5.8,-,N/A,,Clear,220,2013-09-03 06:52:00
1:52 AM,64.9,55.9,73,29.94,10.0,SW,8.1,-,N/A,,Clear,220,2013-09-03 07:52:00
2:52 AM,64.9,55.9,73,29.93,10.0,SSW,8.1,-,N/A,,Clear,200,2013-09-03 08:52:00
3:52 AM,61.0,55.9,83,29.94,10.0,South,5.8,-,N/A,,Scattered Clouds,190,2013-09-03 09:52:00
4:52 AM,63.0,55.9,78,29.95,10.0,South,6.9,-,N/A,,Partly Cloudy,180,2013-09-03 10:52:00
5:52 AM,62.1,55.9,80,29.94,10.0,South,6.9,-,N/A,,Mostly Cloudy,190,2013-09-03 11:52:00
6:52 AM,61.0,55.0,81,29.96,10.0,SW,10.4,-,N/A,,Clear,220,2013-09-03 12:52:00
7:52 AM,64.0,55.9,75,30.00,10.0,South,12.7,-,N/A,,Clear,190,2013-09-03 13:52:00
8:52 AM,68.0,55.9,65,30.04,10.0,South,15.0,23.0,N/A,,Clear,180,2013-09-03 14:52:00
9:52 AM,72.0,54.0,53,30.05,10.0,South,20.7,27.6,N/A,,Clear,190,2013-09-03 15:52:00
10:52 AM,70.0,54.0,57,30.06,10.0,South,15.0,-,N/A,,Mostly Cloudy,180,2013-09-03 16:52:00
11:52 AM,73.0,53.1,49,30.05,10.0,SW,10.4,-,N/A,,Overcast,220,2013-09-03 17:52:00
12:52 PM,77.0,52.0,42,30.02,10.0,SSW,10.4,-,N/A,,Mostly Cloudy,210,2013-09-03 18:52:00
2:52 PM,84.0,50.0,31,29.97,10.0,SSW,10.4,19.6,N/A,,Clear,210,2013-09-03 20:52:00
3:52 PM,86.0,46.9,26,29.95,10.0,SSW,17.3,25.3,N/A,,Clear,210,2013-09-03 21:52:00
4:52 PM,87.1,46.0,24,29.93,10.0,South,8.1,20.7,N/A,,Clear,180,2013-09-03 22:52:00
5:52 PM,84.9,46.0,26,29.92,10.0,SSW,10.4,-,N/A,,Partly Cloudy,200,2013-09-03 23:52:00
6:52 PM,84.9,46.0,26,29.91,10.0,SSW,6.9,-,N/A,,Partly Cloudy,210,2013-09-04 00:52:00
7:52 PM,80.1,48.9,34,29.92,10.0,NNW,5.8,-,N/A,,Partly Cloudy,330,2013-09-04 01:52:00
8:52 PM,75.0,48.9,40,29.95,10.0,Variable,3.5,-,N/A,,Clear,0,2013-09-04 02:52:00
9:52 PM,71.1,50.0,47,29.97,10.0,WNW,3.5,-,N/A,,Clear,300,2013-09-04 03:52:00
10:52 PM,68.0,51.1,55,30.01,10.0,WNW,5.8,-,N/A,,Clear,300,2013-09-04 04:52:00
11:52 PM,68.0,53.1,59,30.00,10.0,Calm,Calm,-,N/A,,Clear,0,2013-09-04 05:52:00